Nome, AK

4:49 PM AKST on January 19, 2017 (GMT -0900)
Nome

Weather History for PAOM - December, 2013

Change the Weather History Date:

Monday, December 16, 2013

  Actual Average Record
Temperature  
Mean Temperature 18 °F 10 °F  
Max Temperature 25 °F 17 °F 36 °F (1945)
Min Temperature 11 °F - -30 °F (1965)
Degree Days  
Heating Degree Days 47 56  
Month to date heating degree days 698 865  
Since 1 July heating degree days 4500 4963  
Cooling Degree Days 0    
Month to date cooling degree days 0  
Year to date cooling degree days 7  
Moisture  
Dew Point 16 °F    
Average Humidity 0    
Maximum Humidity 0    
Minimum Humidity 0    
Precipitation  
Precipitation 0.10 in 0.04 in 0.38 in (1983)
Month to date precipitation 1.53 0.55  
Year to date precipitation 21.85 16.28  
Snow  
Snow 2.00 in 0.50 in 3.90 in (1983)
Month to date snowfall 7.6 7.1  
Since 1 July snowfall 22.2 24.4  
Snow Depth 3.00 in    
Sea Level Pressure  
Sea Level Pressure 30.25 in    
Wind  
Wind Speed 7 mph (SSW)    
Max Wind Speed 24 mph    
Max Gust Speed 30 mph    
Visibility 4 miles    
Events Snow    
T = Trace of Precipitation, MM = Missing Value Source: NWS Daily Summary

Daily Weather History Graph

Daily Weather History Graph

Search for Another Location

Airport or City:

Trip Planner

Search our weather history database for the weather conditions in past years. The results will help you decide how hot, cold, wet, or windy it might be!

Date:

Astronomy

Dec. 16, 2013 Rise Set
Actual Time 11:58 AM AKST 3:56 PM AKST
Civil Twilight 10:37 AM AKST 5:18 PM AKST
Nautical Twilight 9:26 AM AKST 6:28 PM AKST
Astronomical Twilight 8:25 AM AKST 7:29 PM AKST
Moon 4:31 PM AKST (12/16) 10:42 AM AKST (12/16)
Length of Visible Light 6h 41m
Length of Day
3h 57m
Full, 100% of the Moon is Illuminated
Dec 16
Full
Dec 17
Full
Dec 25
Last Quarter
Jan 1
New
Jan 7
First Quarter

Hourly Weather History & Observations

Time (AKST) Temp. Windchill Dew Point Humidity Pressure Visibility Wind Dir Wind Speed Gust Speed Precip Events Conditions
12:53 AM 15.1 °F 3.3 °F 12.0 °F 88% 30.31 in 8.0 mi WNW 9.2 mph - 0.00 in Snow Light Snow
1:22 AM 15.8 °F 5.1 °F 12.2 °F 86% 30.31 in 7.0 mi NNW 8.1 mph - 0.00 in Snow Light Snow
1:51 AM 14.0 °F 3.9 °F 10.4 °F 86% 30.31 in 10.0 mi NW 6.9 mph - 0.00 in   Overcast
1:53 AM 14.0 °F 3.9 °F 10.9 °F 88% 30.32 in 10.0 mi NW 6.9 mph - 0.00 in   Overcast
2:53 AM 15.1 °F 9.4 °F 12.0 °F 88% 30.32 in 6.0 mi WNW 3.5 mph - 0.00 in Snow Light Snow
3:53 AM 16.0 °F - 12.9 °F 88% 30.32 in 7.0 mi Calm Calm - 0.00 in Snow Light Snow
4:53 AM 14.0 °F - 12.0 °F 92% 30.32 in 8.0 mi Calm Calm - 0.00 in Snow Light Snow
5:46 AM 15.8 °F 10.2 °F 12.2 °F 86% 30.31 in 2.5 mi East 3.5 mph - 0.00 in Snow Light Snow
5:50 AM 15.8 °F 8.6 °F 12.2 °F 86% 30.31 in 3.0 mi East 4.6 mph - 0.00 in Snow Light Snow
5:51 AM 15.8 °F 10.2 °F 12.2 °F 86% 30.31 in 3.0 mi ENE 3.5 mph - 0.00 in Snow Light Snow
5:53 AM 16.0 °F 8.8 °F 12.9 °F 88% 30.31 in 3.0 mi ENE 4.6 mph - 0.00 in Snow Light Snow
6:18 AM 15.8 °F 7.2 °F 12.2 °F 86% 30.30 in 2.5 mi ENE 5.8 mph - 0.00 in Snow Light Snow
6:53 AM 16.0 °F 6.3 °F 14.0 °F 92% 30.29 in 1.8 mi East 6.9 mph - 0.01 in Snow Light Snow
7:22 AM 15.8 °F 6.1 °F 14.0 °F 93% 30.30 in 2.0 mi East 6.9 mph - 0.01 in Snow Light Snow
7:53 AM 16.0 °F 6.3 °F 14.0 °F 92% 30.29 in 3.0 mi East 6.9 mph - 0.02 in Snow Light Snow
8:53 AM 16.0 °F 7.4 °F 14.0 °F 92% 30.28 in 6.0 mi East 5.8 mph - 0.00 in Snow Light Snow
9:41 AM 15.8 °F 10.2 °F 12.2 °F 86% 30.28 in 8.0 mi NNE 3.5 mph - 0.00 in Snow Light Snow
9:53 AM 17.1 °F - 15.1 °F 92% 30.27 in 7.0 mi Calm Calm - 0.00 in Snow Light Snow
10:29 AM 15.8 °F - 15.8 °F 100% 30.28 in 5.0 mi Calm Calm - 0.01 in Snow Light Snow
10:39 AM 15.8 °F 10.2 °F 15.8 °F 100% 30.27 in 2.5 mi ESE 3.5 mph - 0.01 in Snow Light Snow
10:53 AM 17.1 °F - 15.1 °F 92% 30.28 in 2.5 mi Calm Calm - 0.01 in Snow Light Snow
11:15 AM 15.8 °F 10.2 °F 15.8 °F 100% 30.28 in 3.0 mi ESE 3.5 mph - 0.00 in Snow Light Snow
11:31 AM - - - N/A% 30.28 in 2.5 mi ENE 4.6 mph - 0.00 in   Overcast
11:34 AM 17.6 °F 9.3 °F 15.8 °F 93% 30.28 in 3.0 mi ENE 5.8 mph - 0.00 in Snow Light Snow
11:53 AM 16.0 °F 8.8 °F 14.0 °F 92% 30.28 in 9.0 mi NE 4.6 mph - 0.00 in   Overcast
12:24 PM 15.8 °F - 14.0 °F 93% 30.27 in 2.5 mi Calm Calm - 0.00 in Snow Light Snow
12:32 PM 15.8 °F - 14.0 °F 93% 30.27 in 3.0 mi Calm Calm - 0.00 in Snow Light Snow
12:51 PM 15.8 °F - 14.0 °F 93% 30.27 in 2.5 mi Calm Calm - 0.00 in Snow Light Snow
12:53 PM 16.0 °F - 14.0 °F 92% 30.27 in 3.0 mi Calm Calm - 0.00 in Snow Light Snow
1:53 PM 16.0 °F - 14.0 °F 92% 30.27 in 4.0 mi Calm Calm - 0.00 in Snow Light Snow
2:10 PM 15.8 °F - 12.2 °F 86% 30.26 in 2.5 mi Calm Calm - 0.00 in Snow Light Snow
2:25 PM 15.8 °F - 14.0 °F 93% 30.27 in 4.0 mi Calm Calm - 0.00 in Snow Light Snow
2:37 PM 15.8 °F - 14.0 °F 93% 30.26 in 8.0 mi Calm Calm - 0.00 in   Overcast
2:53 PM 14.0 °F - 12.9 °F 95% 30.27 in 9.0 mi Calm Calm - 0.00 in   Overcast
3:53 PM 10.9 °F - 10.0 °F 96% 30.25 in 10.0 mi Calm Calm - N/A   Mostly Cloudy
4:51 PM 12.2 °F - 12.2 °F 100% 30.23 in 5.0 mi Calm Calm - 0.00 in Snow Light Snow
4:53 PM 14.0 °F - 12.0 °F 92% 30.23 in 6.0 mi Calm Calm - 0.00 in Snow Light Snow
5:21 PM 17.6 °F 9.3 °F 15.8 °F 93% 30.23 in 1.8 mi ESE 5.8 mph - 0.00 in Snow Light Snow
5:27 PM 17.6 °F 10.7 °F 17.6 °F 100% 30.24 in 0.8 mi ESE 4.6 mph - 0.01 in Snow Light Snow
5:32 PM 17.6 °F 10.7 °F 17.6 °F 100% 30.24 in 1.0 mi ESE 4.6 mph - 0.02 in Snow Light Snow
5:51 PM 19.4 °F 12.8 °F 19.4 °F 100% 30.23 in 3.0 mi Variable 4.6 mph - 0.02 in Snow Light Snow
5:53 PM 21.0 °F 14.6 °F 19.9 °F 96% 30.23 in 3.0 mi WSW 4.6 mph - 0.03 in Snow Light Snow
5:58 PM 21.2 °F 12.6 °F 21.2 °F 100% 30.23 in 4.0 mi WNW 6.9 mph - 0.00 in Snow Light Snow
6:05 PM 21.2 °F 9.5 °F 21.2 °F 100% 30.23 in 4.0 mi WSW 11.5 mph 17.3 mph 0.00 in Snow Light Snow
6:51 PM 24.8 °F 10.3 °F 19.4 °F 80% 30.20 in 4.0 mi SW 20.7 mph - 0.01 in Snow Light Snow
6:53 PM 24.1 °F 9.8 °F 19.0 °F 81% 30.20 in 4.0 mi SW 19.6 mph - 0.01 in Snow Light Snow
7:31 PM 24.8 °F 11.1 °F 21.2 °F 86% 30.19 in 2.0 mi SW 18.4 mph - 0.00 in Snow Light Snow
7:51 PM 24.8 °F 11.5 °F 21.2 °F 86% 30.19 in 4.0 mi SSW 17.3 mph - 0.00 in Snow Light Snow
7:53 PM 24.1 °F 9.4 °F 21.9 °F 91% 30.19 in 4.0 mi SSW 20.7 mph - 0.00 in Snow Light Snow
8:53 PM 25.0 °F 11.7 °F 23.0 °F 92% 30.18 in 4.0 mi SSW 17.3 mph 26.5 mph 0.00 in Snow Light Snow
9:05 PM 24.8 °F 10.0 °F 24.8 °F 100% 30.17 in 1.8 mi SW 21.9 mph 27.6 mph 0.00 in Snow Light Snow
9:13 PM 24.8 °F 11.5 °F 21.2 °F 86% 30.16 in 2.5 mi West 17.3 mph 27.6 mph 0.00 in Snow Light Snow
9:31 PM 24.8 °F 12.4 °F 19.4 °F 80% 30.16 in 6.0 mi WSW 15.0 mph - 0.01 in Snow Light Snow
9:53 PM 24.1 °F 12.0 °F 21.9 °F 91% 30.17 in 6.0 mi West 13.8 mph - 0.01 in Snow Light Snow
10:00 PM 24.8 °F 11.9 °F 21.2 °F 86% 30.15 in 2.0 mi West 16.1 mph - 0.00 in Snow Light Snow
10:40 PM 24.8 °F 12.4 °F 17.6 °F 74% 30.15 in 2.0 mi WSW 15.0 mph - 0.01 in Snow Light Snow
10:51 PM 24.8 °F 12.4 °F 19.4 °F 80% 30.14 in 2.0 mi WSW 15.0 mph - 0.01 in Snow Light Snow
10:53 PM 24.1 °F 10.1 °F 19.9 °F 84% 30.14 in 2.0 mi WSW 18.4 mph 24.2 mph 0.01 in Snow Light Snow
11:53 PM 24.1 °F 8.3 °F 21.9 °F 91% 30.13 in 2.0 mi West 24.2 mph - 0.00 in Snow Light Snow